AG5GL Weather Reports


Display with metric or nautical units.
time (UTC)temp
F
wind
direction
speed
MPH
gust
MPH
rain 1hr
in
rain 24hr
in
rain mn
in
humidity
%
barometer
mb
20260504201839 0 80 0.0 1.0 0.00 0.00 0.00 1017.1
20260504200834 0 76 6.0 9.0 0.00 0.00 0.00 1017.0
20260504195833 0 71 6.0 8.0 0.00 0.00 0.00 1017.0
20260504194831 0 67 5.0 7.0 0.00 0.00 0.00 1017.1
20260504193829 0 71 8.0 11.0 0.00 0.00 0.00 1017.3
20260504192825 0 77 3.0 5.0 0.00 0.00 0.00 1017.3
20260504191821 0 92 7.0 10.0 0.00 0.00 0.00 1017.4
20260504190819 0 98 3.0 7.0 0.00 0.00 0.00 1017.4
20260504185818 0 104 5.0 7.0 0.00 0.00 0.00 1017.2
20260504184817 0 89 6.0 8.0 0.00 0.00 0.00 1017.4
20260504183815 0 67 5.0 8.0 0.00 0.00 0.00 1017.3
20260504182810 0 77 1.0 5.0 0.00 0.00 0.00 1017.7
20260504181810 0 96 6.0 7.0 0.00 0.00 0.00 1017.7
20260504180807 0 100 4.0 6.0 0.00 0.00 0.00 1017.9
20260504175802 0 94 5.0 7.0 0.00 0.00 0.00 1018.4
20260504174803 0 77 7.0 8.0 0.00 0.00 0.00 1018.2
20260504173802 0 76 1.0 2.0 0.00 0.00 0.00 1018.5
20260504172802 0 76 2.0 6.0 0.00 0.00 0.00 1018.4
20260504171800 0 81 0.0 2.0 0.00 0.00 0.00 1018.4
20260504170755 0 89 5.0 7.0 0.00 0.00 0.00 1018.3
20260504150733 0 91 4.0 8.0 0.00 0.00 0.00 1019.4
20260504140731 0 86 0.0 0.0 0.00 0.00 0.00 1019.7
20260504130719 0 89 3.0 6.0 0.00 0.00 0.00 1019.8
20260504110652 0 70 0.0 0.0 0.00 0.00 0.00 1019.9
20260504081621 0 39 0.0 0.0 0.00 0.00 0.00 1018.5
20260504080620 0 34 0.0 0.0 0.00 0.00 0.00 1018.8
20260504050548 0 84 0.0 0.0 0.00 0.00 0.00 1019.3
20260504045548 0 77 0.0 0.0 0.00 0.00 0.00 1019.7
20260504044546 0 72 0.0 0.0 0.00 0.00 0.00 1019.8
20260504043546 0 66 0.0 0.0 0.00 0.00 0.00 1020.1
20260504042546 0 58 0.0 0.0 0.00 0.00 0.00 1020.2
20260504041545 0 55 0.0 0.0 0.00 0.00 0.00 1020.4
20260504040544 0 75 0.0 0.0 0.00 0.00 0.00 1020.5
20260504035543 0 65 0.0 0.0 0.00 0.00 0.00 1020.4
20260504034538 0 36 0.0 0.0 0.00 0.00 0.00 1020.7
20260504033538 0 53 0.0 0.0 0.00 0.00 0.00 1020.8
20260504032538 0 47 0.0 0.0 0.00 0.00 0.00 1020.6
20260504031537 0 43 0.0 0.0 0.00 0.00 0.00 1020.6
20260504030536 0 44 0.0 0.0 0.00 0.00 0.00 1020.7
20260504025535 0 45 0.0 0.0 0.00 0.00 0.00 1020.8
20260504024535 0 42 0.0 0.0 0.00 0.00 0.00 1020.4
20260504023534 0 71 0.0 0.0 0.00 0.00 0.00 1020.4
20260504022532 0 48 0.0 0.0 0.00 0.00 0.00 1020.3
20260504021532 0 48 0.0 0.0 0.00 0.00 0.00 1020.1
20260504020531 0 43 0.0 0.0 0.00 0.00 0.00 1020.1
20260504015530 0 37 0.0 0.0 0.00 0.00 0.00 1019.7
20260504014528 0 39 0.0 0.0 0.00 0.00 0.00 1019.6
20260504013523 0 51 0.0 0.0 0.00 0.00 0.00 1019.7
20260504012523 0 51 0.0 0.0 0.00 0.00 0.00 1019.6
20260504011523 0 63 0.0 0.0 0.00 0.00 0.00 1019.5
20260504010521 0 121 0.0 0.0 0.00 0.00 0.00 1019.6
20260504005520 0 216 0.0 0.0 0.00 0.00 0.00 1019.4
20260504004515 0 221 0.0 0.0 0.00 0.00 0.00 1019.3
20260504003514 0 56 0.0 0.0 0.00 0.00 0.00 1019.4
20260504002514 0 111 0.0 0.0 0.00 0.00 0.00 1019.4
20260504001515 0 61 0.0 0.0 0.00 0.00 0.00 1019.1
20260504000514 0 128 0.0 0.0 0.00 0.00 0.00 1019.0
20260503235515 0 108 0.0 0.0 0.00 0.00 0.00 1018.8
20260503234515 0 116 0.0 1.0 0.00 0.00 0.00 1018.8
20260503233509 0 126 0.0 1.0 0.00 0.00 0.00 1018.6
20260503232508 0 58 1.0 2.0 0.00 0.00 0.00 1018.6
20260503231503 0 65 0.0 1.0 0.00 0.00 0.00 1018.2
20260503230502 0 94 0.0 0.0 0.00 0.00 0.00 1018.3
20260503225503 0 98 3.0 3.0 0.00 0.00 0.00 1018.2
20260503224501 0 87 7.0 9.0 0.00 0.00 0.00 1018.1
20260503223457 0 96 2.0 5.0 0.00 0.00 0.00 1018.2
20260503222456 0 129 5.0 7.0 0.00 0.00 0.00 1018.0
20260503221452 0 131 7.0 10.0 0.00 0.00 0.00 1017.9
20260503220451 0 72 7.0 10.0 0.00 0.00 0.00 1017.8
20260503215451 0 94 9.0 10.0 0.00 0.00 0.00 1017.8
20260503214446 0 92 1.0 5.0 0.00 0.00 0.00 1017.9
20260503213442 0 109 9.0 11.0 0.00 0.00 0.00 1017.6
20260503212441 0 79 9.0 11.0 0.00 0.00 0.00 1018.1
20260503211441 0 84 5.0 7.0 0.00 0.00 0.00 1017.7
20260503210439 0 85 6.0 9.0 0.00 0.00 0.00 1017.6
20260503205437 0 88 7.0 9.0 0.00 0.00 0.00 1017.6
20260503204436 0 78 6.0 9.0 0.00 0.00 0.00 1017.6
20260503203436 0 69 3.0 6.0 0.00 0.00 0.00 1017.8
20260503202431 0 80 9.0 11.0 0.00 0.00 0.00 1017.9